Вернуться в каталог

SCOUT B DEB

АктивенUNKNOWN
NORAD 29172·DEBRIS·🇺🇸 United States

Запущен Aug 10, 1965 с Wallops Flight Facility

Loading…

Ближайшие Пролёты (ближайшие 24 часа)

TLE

УстаревающийSource: Space-Track

Эпоха: Aug 17, 2026, 07:53 UTC

1 29172U 65063W   26229.32878769  .00000282  00000-0  22397-2 0  9999
2 29172  69.2271 104.1724 0762480  98.9061  11.5640 11.80613490605077

Отслеживайте SCOUT B DEB в реальном времени с AllMySat

Download on the App Store